KATL

Atlanta/Hartsfield-Jackson International

Airport
ICAO code
KATL
IATA Code
ATL
Summary
ICAO Region
NAM
ICAO Territory
Location

Atlanta, Georgia

Serving
Atlanta
Elevation
1026 ft
Coordinates
33° 38' 25" N , 84° 25' 38" W
KCC
Airport LOS
Parallel Runway Operation
Metar
Observation
KATL 052352Z 26003KT 10SM FEW050 14/06 A3012 RMK AO2 SLP204 T01390061 10172 20133 55004 $
Station
Atlanta, Hartsfield - Jackson Atlanta International Airport
Date/Time
2023-02-06 00:52:00
Wind direction
260°
Wind speed
03 kts
Lowest cloud amount
few clouds
Temperature
13.9°C
Dew point
6.1°C
Humidity
59%
Weather condition
n/a

Description

International airport serving Atlanta, Georgia.

Climatology

Humid “subtropical” climate (Köppen climate classification Cfa) - characterized by hot, humid summers and cool winters. Significant amounts of precipitation occur in all seasons in most areas. Winter rainfall (and sometimes snowfall) is associated with large storms that the westerlies steer from west to east. Most summer rainfall occurs during thunderstorms and occasional tropical storms (hurricanes).

SKYbrary Partners:

Safety knowledge contributed by: